Temperature
18 18 18 18 17 17 17 17 17 17 17 17 17 17 17 17 17 17 17 17 17 17 17 17 17 17 17 17 17 17 17 17 17 16 16 16 16 16 16 16 16 16 16
18 18 18 18 17 17 17 17 17 17 17 17 17 17 17 18 17 17 17 17 17 17 17 17 17 17 17 17 17 17 17 17 16 16 16 16 16 16 16 16 16 16 16
18 17 18 17 17 17 17 17 17 17 17 17 17 17 17 17 17 17 17 17 17 17 17 17 17 17 17 17 17 17 17 16 16 16 16 16 16 16 16 16 16 16 16
18 17 17 17 17 17 17 17 17 17 17 17 17 17 17 17 17 17 17 17 17 17 17 17 17 17 17 17 17 17 16 16 16 16 16 16 16 16 16 16 16 16 16
18 18 18 17 17 17 17 17 17 17 17 17 17 18 18 18 18 17 17 17 17 17 17 17 17 17 17 17 17 17 17 16 16 16 16 16 16 16 16 16 16 16 16
18 18 18 17 17 17 17 17 17 17 17 18 18 17 17 17 17 17 17 17 17 17 17 17 17 17 17 17 17 17 17 16 16 16 16 16 16 16 16 16 16 16 16
18 18 18 18 17 17 17 17 17 17 17 17 17 17 17 17 17 17 17 17 17 17 17 17 17 17 17 17 17 17 16 16 16 16 16 16 16 16 16 16 16 15 15
18 18 18 18 17 17 17 17 17 17 17 17 17 17 17 17 17 17 17 17 17 17 17 17 17 17 17 17 17 17 16 16 16 16 16 16 16 16 15 15 15 15 15
18 18 18 18 17 17 17 17 17 17 17 17 17 17 17 17 17 17 17 17 17 17 17 17 17 17 17 17 17 17 16 16 16 16 16 16 16 16 15 15 15 15 15
18 18 18 18 18 18 17 17 17 17 17 17 17 17 17 17 17 16 17 17 17 17 17 17 17 17 17 17 17 17 16 16 16 16 16 16 16 15 15 15 15 15 15
18 18 18 18 18 18 17 17 17 17 17 17 17 17 17 17 17 16 16 17 17 17 16 16 16 17 17 16 16 16 16 16 16 16 16 16 15 15 15 15 15 15 15
18 18 18 18 18 18 17 17 17 17 17 17 17 17 17 17 16 16 16 16 16 16 16 16 16 16 16 16 16 16 16 16 16 16 15 15 15 15 15 15 15 15 15
18 18 18 18 18 18 17 17 17 17 17 17 17 17 17 16 16 16 16 16 16 16 16 16 16 16 16 16 16 16 16 16 16 16 15 15 15 15 15 15 15 15 15
19 18 18 18 18 18 17 17 17 17 17 17 17 17 16 16 16 16 16 16 15 15 16 16 16 16 16 16 15 15 15 15 15 15 15 15 15 15 15 15 15 15 15
18 18 18 18 18 17 17 17 17 17 17 17 17 16 16 16 16 16 16 15 15 15 15 16 15 15 15 15 15 15 15 15 15 15 15 15 15 15 15 15 15 15 14
18 18 18 18 18 17 17 17 17 17 17 17 16 16 16 16 16 16 15 15 15 15 15 15 15 15 15 15 15 15 15 15 15 15 15 14 14 14 14 14 14 14 14
18 18 18 18 18 17 17 17 17 16 16 16 16 16 16 16 16 15 15 15 15 15 14 15 15 15 15 15 15 15 14 14 14 14 14 14 14 14 14 14 14 14 14
18 18 17 17 17 17 17 17 17 16 16 16 16 16 16 15 15 15 15 15 15 14 14 14 14 14 14 14 14 14 14 14 14 14 14 14 14 14 14 14 13 14 14
18 18 17 17 17 17 17 16 16 16 16 16 16 16 15 15 15 15 15 14 14 14 14 14 14 14 14 14 14 14 14 14 14 14 14 14 14 13 13 13 13 13 13
18 18 17 17 17 17 16 16 16 16 16 15 15 15 15 15 15 14 14 14 14 14 14 14 14 14 14 13 13 13 14 14 14 14 13 13 13 13 13 13 13 13 13
18 17 17 17 16 16 16 16 16 16 15 15 15 15 15 15 14 14 14 14 14 14 13 13 13 13 13 13 13 13 13 13 13 13 13 13 13 13 13 13 13 13 13
17 17 17 16 16 16 16 16 16 15 15 15 15 15 15 14 14 14 14 14 14 13 13 13 13 13 13 13 13 13 13 13 13 13 13 13 13 13 13 12 12 12 12
17 16 16 16 16 16 15 15 15 15 15 15 15 15 14 14 14 14 14 14 13 13 13 13 13 13 13 13 13 13 13 12 12 12 12 12 12 12 12 12 12 12 12
16 16 16 16 16 15 15 15 15 15 15 14 14 14 14 14 14 14 13 13 13 13 13 13 13 13 13 12 12 12 12 12 12 12 12 12 12 12 12 12 12 12 12
16 16 15 15 15 15 15 15 14 14 14 14 14 14 14 14 14 13 13 13 13 13 13 13 13 12 12 12 12 12 12 12 12 12 12 11 12 12 12 12 12 12 12
16 15 15 15 15 14 14 14 14 14 14 14 14 14 13 13 13 13 13 13 13 13 13 12 12 12 12 12 12 12 12 12 12 11 12 11 11 11 11 11 11 11 11
Wind_Speed
3 3 3 3 3 3 3 3 3 4 4 3 2 2 1 1 1 0 0 0 1 2 2 2 4 6 7 7 7 6 7 8 8 8 8 8 9 9 9 9 9 9 10
2 3 3 3 3 2 3 3 3 3 3 3 3 2 1 1 0 1 1 1 1 2 3 2 3 5 6 7 7 8 8 8 8 8 8 8 8 9 9 9 8 8 9
2 2 3 2 2 3 3 3 3 3 3 3 2 2 2 1 1 1 1 1 1 2 2 3 3 4 4 5 7 8 8 8 8 8 8 8 9 9 8 9 9 9 9
3 2 2 2 2 3 3 2 3 3 3 2 2 2 1 1 1 1 1 2 1 2 2 3 3 3 4 5 6 6 7 8 8 7 7 8 8 9 9 9 9 9 10
3 3 2 1 2 2 2 2 2 2 2 2 2 2 2 1 1 1 1 2 2 2 2 3 3 3 4 4 4 4 5 6 7 7 7 7 7 8 8 8 8 9 10
3 3 2 2 2 2 2 2 2 2 1 1 2 3 2 2 1 1 1 1 2 2 2 2 2 3 3 4 4 4 4 5 5 5 6 6 6 7 7 8 8 8 9
2 2 2 2 2 2 1 2 2 2 1 1 2 3 3 2 2 2 1 1 2 2 2 2 2 2 2 4 4 4 5 5 5 5 5 6 6 6 6 7 7 7 8
2 2 1 1 1 1 2 2 2 1 0 1 1 1 3 3 3 2 2 1 2 2 2 2 2 2 3 3 3 4 5 5 5 4 5 6 7 7 7 7 7 7 7
1 1 1 1 1 1 1 2 2 2 1 0 1 2 1 1 2 2 2 2 2 2 2 2 2 2 3 3 3 5 5 6 7 6 6 6 7 7 8 8 8 8 8
1 0 1 1 1 1 2 2 2 2 2 1 0 1 1 2 1 2 2 2 3 2 2 2 2 3 3 3 3 4 5 6 7 8 8 7 7 7 8 8 8 8 9
2 1 0 1 1 1 2 1 1 2 2 2 1 1 1 1 1 1 2 3 3 2 2 2 2 2 3 3 3 4 4 5 6 7 8 7 6 6 7 7 7 8 8
2 2 0 1 1 1 1 1 1 2 2 2 2 2 2 2 2 2 2 2 2 3 3 2 2 2 2 2 3 4 4 4 5 6 6 6 6 7 7 7 7 7 7
2 2 1 1 1 1 1 1 1 1 2 2 2 2 2 2 2 2 2 2 2 2 2 2 2 2 2 2 3 4 4 4 4 5 5 5 6 6 6 6 6 6 6
3 2 1 1 1 1 1 1 1 1 1 1 2 1 1 2 2 2 2 2 1 2 2 3 2 2 3 3 3 4 3 4 4 4 4 4 4 5 5 5 5 5 5
2 1 1 1 0 1 1 2 1 1 1 1 1 1 1 1 2 2 2 3 2 2 3 2 2 2 3 3 4 3 3 4 4 4 3 3 3 3 4 4 4 3 3
1 1 1 1 0 1 1 1 1 1 1 1 1 1 1 1 1 1 2 2 2 3 3 2 2 3 3 3 3 3 3 4 4 4 3 3 3 4 4 4 4 4 4
1 1 1 1 1 0 1 1 2 1 1 1 1 1 2 1 1 1 1 1 2 2 3 3 2 2 2 3 3 3 3 3 3 4 4 4 4 4 4 4 4 4 4
1 2 1 1 1 1 1 2 2 2 2 2 2 2 2 2 2 2 2 2 2 3 3 4 3 2 2 3 3 3 2 3 3 4 5 5 5 4 4 5 5 5 5
1 1 1 2 2 2 2 2 2 2 2 3 3 3 3 2 3 3 2 3 3 2 3 3 3 2 2 2 2 3 3 3 3 3 4 4 4 4 4 4 5 5 6
1 1 2 2 2 2 2 2 2 2 2 3 3 3 4 4 4 4 3 3 3 3 2 3 3 3 2 2 1 2 3 2 3 3 3 3 4 4 5 5 5 5 6
1 1 1 2 2 2 2 3 3 3 2 3 3 4 4 4 4 4 3 4 3 3 3 3 3 3 3 2 2 2 3 3 3 2 2 3 3 3 3 4 5 5 5
1 1 1 2 2 2 3 3 3 3 2 2 3 4 4 4 5 5 5 5 5 5 5 4 4 5 5 4 3 2 2 2 3 1 1 3 2 3 3 3 4 5 5
1 2 2 2 3 3 4 3 3 2 2 3 3 4 4 4 4 4 5 5 4 5 6 5 6 7 6 5 4 4 4 4 4 2 1 3 2 4 4 4 5 5 5
2 2 2 3 3 4 3 3 3 2 2 3 3 4 4 4 4 3 3 4 4 5 5 5 6 7 6 5 5 5 5 4 3 3 2 3 3 3 4 4 5 5 6
2 2 2 2 3 4 4 3 2 2 2 3 3 3 3 4 5 3 2 3 4 5 5 5 5 5 5 5 4 2 2 2 3 3 2 3 3 3 3 4 4 5 6
2 2 2 2 2 3 4 3 2 2 2 3 3 3 3 4 4 3 2 3 5 5 4 3 3 4 4 4 4 5 4 4 3 3 2 2 2 2 2 2 3 3 4
Wind_Direction
59 52 45 48 51 57 61 63 72 74 73 63 63 81 86 79 49 1 296 302 227 221 219 210 209 210 203 200 202 205 207 211 211 212 217 222 222 222 223 225 226 229 230
86 74 57 46 43 62 74 78 77 75 69 60 42 40 61 67 36 13 334 310 271 246 242 235 220 215 212 210 211 215 215 215 215 217 219 221 224 229 229 231 231 231 228
106 93 79 62 44 67 72 77 67 65 64 59 45 34 44 38 25 11 352 343 319 283 258 242 228 222 217 221 223 222 222 224 229 230 229 225 225 226 226 230 231 233 230
125 118 99 80 68 73 71 79 73 63 54 49 37 27 44 45 7 7 0 345 333 319 299 269 243 234 236 236 237 234 234 233 235 237 232 229 228 226 226 229 232 235 234
125 127 116 106 100 81 70 89 78 79 63 39 32 32 26 20 3 17 15 341 323 309 303 300 280 261 258 252 246 244 240 237 234 237 237 236 237 233 229 230 233 240 239
105 119 120 106 108 95 80 81 86 70 81 55 41 30 15 4 8 13 355 355 340 333 337 316 309 291 280 271 252 244 239 241 244 243 241 240 241 240 237 235 237 242 241
83 109 112 96 100 107 113 112 111 88 56 50 49 15 8 15 19 12 14 15 3 0 360 336 318 297 294 277 256 244 242 244 248 249 245 241 237 237 238 236 239 240 239
63 101 120 128 129 128 118 126 132 116 63 59 89 51 358 356 6 11 17 15 353 357 347 333 319 278 277 285 274 259 252 252 257 255 251 249 245 242 245 245 244 242 237
32 88 147 158 165 160 163 172 164 153 174 19 115 131 129 277 320 340 353 360 349 344 327 325 316 295 278 277 276 268 258 255 256 254 253 251 251 250 247 250 247 243 241
4 19 138 158 183 182 186 204 174 166 161 187 183 156 175 175 186 315 328 337 336 328 322 321 318 306 289 281 280 276 268 261 260 259 257 256 255 256 255 256 255 253 247
354 345 112 135 174 185 195 194 165 165 174 180 181 169 146 138 175 196 289 322 333 316 305 297 307 310 301 291 289 286 283 275 271 268 265 262 261 263 264 263 262 260 255
326 324 332 161 186 193 199 199 188 184 192 188 184 173 170 176 192 189 232 274 298 302 301 290 293 302 308 311 300 302 288 281 278 273 268 265 264 263 262 265 264 264 263
283 278 267 217 204 215 208 179 179 212 202 193 193 202 200 209 184 175 189 242 271 290 307 297 283 296 307 315 305 311 306 298 287 275 271 268 266 265 264 262 259 264 267
253 255 245 236 212 195 180 157 176 223 187 199 213 204 214 230 196 186 185 188 263 285 283 283 309 296 307 305 304 310 314 309 292 280 278 279 267 261 264 265 262 263 267
253 243 225 225 210 173 167 157 176 211 185 202 214 217 225 230 207 210 197 190 193 255 277 274 286 299 301 299 297 302 303 307 299 286 276 276 261 253 257 260 267 270 272
252 231 215 192 152 137 154 160 189 208 177 245 225 231 258 249 231 212 202 207 204 212 249 259 260 291 294 299 301 293 289 298 290 277 275 273 267 258 260 263 263 270 273
236 230 224 211 203 193 184 186 214 204 214 263 272 254 273 259 239 227 195 197 205 205 244 272 267 294 293 302 307 299 297 290 292 277 272 267 266 266 267 269 270 267 264
230 224 211 219 235 239 223 217 228 222 222 244 261 261 272 267 254 243 221 229 234 223 227 262 276 285 279 293 297 299 308 300 286 286 280 273 270 270 269 272 272 270 266
227 221 199 223 240 243 240 234 229 232 234 242 246 247 258 254 262 258 246 245 248 245 230 246 270 272 285 304 312 316 316 308 305 298 292 281 277 274 274 269 264 260 258
217 235 231 238 243 245 249 241 233 241 251 261 259 254 252 242 246 250 251 249 247 248 245 253 272 280 281 293 301 305 309 306 302 302 301 296 286 284 278 271 265 263 260
249 248 256 275 269 253 260 252 245 244 248 272 279 271 257 248 244 245 251 247 240 245 248 252 265 275 275 278 274 269 282 293 291 271 290 292 284 283 284 276 269 267 261
280 280 263 267 272 273 281 264 247 248 242 249 268 280 275 266 265 259 258 250 236 238 242 242 254 261 264 262 261 256 264 283 285 273 272 292 277 275 279 278 274 265 256
256 268 260 249 255 269 273 264 246 238 247 251 256 272 281 286 278 273 272 273 263 250 234 232 245 251 252 249 245 252 252 256 257 261 236 278 276 278 283 283 274 260 252
248 252 260 260 264 280 289 280 266 248 255 265 262 260 266 284 289 279 280 283 276 269 258 245 242 249 250 246 232 239 245 254 267 264 224 262 271 275 287 276 267 254 249
250 258 263 255 259 288 293 280 273 262 268 277 277 273 271 280 292 291 276 282 288 289 283 267 253 257 258 249 224 211 223 235 267 266 221 243 269 282 285 277 271 264 259
233 253 279 284 277 290 292 283 268 249 271 287 297 295 285 284 293 290 255 263 275 281 288 293 293 292 278 263 224 212 216 224 251 262 230 229 258 273 282 272 282 290 280
Height
1518 1519 1519 1520 1521 1521 1521 1522 1523 1524 1525 1526 1527 1528 1529 1530 1530 1530 1530 1530 1530 1530 1529 1530 1529 1530 1531 1532 1533 1534 1534 1536 1537 1538 1539 1540 1541 1542 1542 1544 1545 1546 1547
1521 1521 1522 1522 1523 1523 1524 1524 1525 1526 1527 1528 1529 1529 1530 1530 1530 1531 1531 1531 1531 1530 1530 1530 1529 1529 1530 1531 1531 1532 1533 1534 1535 1535 1536 1537 1538 1539 1540 1541 1543 1543 1544
1524 1524 1524 1525 1525 1525 1526 1526 1527 1527 1528 1529 1529 1530 1530 1530 1531 1531 1531 1531 1530 1530 1530 1530 1529 1529 1530 1530 1531 1531 1532 1533 1533 1534 1535 1535 1536 1537 1538 1539 1540 1541 1541
1526 1526 1526 1527 1527 1527 1528 1528 1528 1528 1529 1529 1530 1530 1530 1531 1531 1531 1531 1531 1530 1530 1530 1530 1530 1529 1530 1530 1530 1531 1531 1531 1531 1532 1533 1533 1534 1534 1535 1536 1537 1538 1538
1528 1528 1528 1529 1529 1529 1529 1529 1529 1529 1529 1530 1530 1530 1530 1530 1531 1531 1531 1530 1530 1530 1529 1529 1529 1529 1529 1529 1529 1529 1529 1529 1530 1530 1531 1531 1531 1532 1533 1534 1534 1535 1535
1530 1530 1530 1530 1530 1530 1530 1530 1530 1530 1530 1530 1530 1530 1530 1530 1530 1530 1530 1530 1530 1529 1529 1528 1528 1528 1528 1528 1528 1528 1528 1528 1528 1529 1529 1529 1530 1530 1531 1531 1532 1532 1532
1531 1531 1530 1531 1531 1531 1530 1531 1531 1530 1530 1531 1530 1530 1530 1530 1530 1530 1530 1529 1529 1528 1528 1528 1527 1527 1527 1527 1527 1527 1527 1527 1527 1527 1527 1527 1528 1528 1528 1529 1529 1529 1529
1531 1531 1531 1531 1531 1531 1531 1531 1531 1531 1531 1531 1531 1530 1530 1531 1530 1529 1529 1529 1528 1528 1527 1526 1526 1526 1526 1525 1525 1526 1525 1525 1526 1526 1526 1526 1526 1526 1526 1526 1526 1526 1526
1532 1532 1532 1532 1531 1531 1531 1531 1531 1531 1531 1531 1531 1531 1531 1530 1529 1529 1528 1528 1527 1527 1526 1526 1525 1525 1524 1524 1524 1524 1524 1524 1524 1524 1524 1524 1524 1524 1524 1524 1524 1523 1523
1532 1532 1531 1531 1531 1531 1531 1530 1530 1530 1530 1530 1530 1530 1531 1530 1530 1528 1528 1527 1527 1526 1525 1524 1524 1523 1523 1522 1522 1522 1522 1522 1521 1521 1521 1521 1521 1521 1521 1521 1521 1520 1519
1531 1531 1531 1531 1530 1530 1530 1530 1530 1530 1530 1530 1529 1529 1529 1529 1528 1528 1527 1527 1526 1525 1524 1523 1522 1522 1521 1521 1520 1520 1520 1519 1519 1518 1518 1518 1518 1518 1518 1517 1517 1516 1516
1531 1531 1530 1530 1530 1529 1529 1529 1529 1529 1529 1528 1528 1528 1528 1527 1527 1526 1525 1525 1524 1524 1523 1522 1521 1520 1520 1519 1518 1518 1517 1517 1516 1516 1515 1515 1515 1515 1514 1514 1514 1513 1513
1530 1530 1529 1529 1529 1528 1528 1528 1528 1528 1527 1527 1527 1526 1526 1526 1525 1525 1524 1523 1522 1521 1521 1521 1520 1519 1518 1517 1517 1516 1515 1515 1514 1513 1513 1513 1512 1512 1511 1511 1511 1510 1510
1528 1528 1528 1528 1528 1527 1527 1526 1526 1526 1526 1525 1525 1525 1524 1524 1524 1523 1523 1522 1520 1519 1518 1518 1518 1517 1516 1516 1515 1514 1513 1513 1512 1511 1511 1510 1509 1509 1508 1508 1508 1508 1507
1527 1527 1527 1527 1526 1526 1526 1525 1525 1525 1524 1524 1523 1523 1522 1522 1521 1521 1520 1520 1520 1517 1516 1515 1515 1515 1514 1514 1513 1512 1511 1510 1510 1509 1508 1507 1506 1506 1505 1505 1505 1505 1504
1526 1526 1525 1525 1525 1525 1524 1524 1523 1523 1523 1522 1522 1521 1521 1520 1519 1518 1518 1517 1517 1516 1514 1513 1513 1513 1512 1511 1510 1509 1508 1507 1507 1506 1505 1505 1504 1503 1503 1502 1502 1501 1501
1524 1524 1524 1523 1523 1523 1522 1522 1522 1521 1521 1520 1520 1519 1518 1518 1517 1516 1515 1515 1514 1513 1512 1511 1511 1510 1509 1508 1507 1506 1505 1505 1504 1503 1503 1502 1501 1500 1500 1499 1499 1498 1498
1522 1522 1521 1521 1521 1520 1520 1519 1519 1519 1518 1518 1517 1517 1516 1516 1515 1514 1513 1512 1511 1510 1510 1508 1507 1507 1506 1505 1504 1503 1503 1502 1501 1501 1500 1499 1498 1497 1497 1496 1495 1495 1494
1520 1519 1519 1519 1518 1518 1517 1517 1516 1516 1515 1515 1515 1514 1513 1513 1512 1511 1510 1509 1509 1508 1507 1506 1504 1504 1503 1502 1501 1501 1500 1499 1499 1498 1497 1496 1495 1494 1493 1492 1491 1491 1490
1517 1517 1516 1516 1516 1515 1515 1514 1514 1513 1512 1512 1512 1511 1510 1510 1509 1508 1507 1506 1506 1505 1504 1502 1501 1500 1500 1499 1498 1498 1497 1496 1496 1495 1494 1493 1492 1491 1489 1488 1487 1486 1486
1515 1514 1514 1513 1513 1512 1512 1511 1511 1510 1509 1509 1509 1508 1507 1506 1505 1505 1504 1503 1502 1501 1500 1499 1498 1497 1497 1496 1495 1495 1494 1493 1492 1492 1491 1490 1488 1487 1486 1485 1484 1483 1482
1512 1512 1511 1511 1510 1510 1509 1508 1508 1507 1506 1506 1505 1505 1504 1503 1502 1501 1500 1499 1499 1498 1497 1496 1495 1494 1493 1493 1492 1492 1491 1490 1489 1489 1487 1486 1485 1483 1482 1481 1480 1479 1478
1509 1508 1508 1508 1507 1507 1506 1505 1505 1504 1503 1502 1501 1501 1500 1499 1498 1497 1496 1495 1494 1494 1493 1492 1491 1490 1490 1489 1489 1488 1487 1486 1486 1485 1484 1482 1481 1480 1479 1478 1477 1476 1475
1506 1505 1505 1504 1504 1503 1503 1502 1502 1501 1499 1499 1498 1497 1496 1495 1494 1493 1492 1491 1490 1489 1489 1488 1487 1487 1486 1486 1486 1485 1484 1483 1482 1482 1481 1479 1477 1476 1475 1474 1474 1473 1472
1503 1503 1502 1501 1501 1500 1500 1499 1498 1497 1496 1495 1495 1494 1493 1492 1491 1490 1488 1487 1486 1485 1485 1485 1484 1483 1483 1482 1482 1481 1481 1480 1478 1478 1477 1476 1474 1472 1471 1471 1470 1469 1468
1501 1500 1500 1499 1499 1498 1497 1496 1495 1494 1493 1492 1491 1491 1490 1489 1487 1486 1485 1483 1482 1482 1481 1481 1480 1480 1479 1479 1478 1478 1477 1476 1475 1474 1473 1472 1471 1470 1468 1467 1466 1466 1465